EW7146 Weather Reports


time (UTC)temp
C
wind
direction
speed
KPH
gust
KPH
rain 1hr
cm
rain 24hr
cm
rain mn
cm
humidity
%
barometer
mb
20260902093015 15 162 0.0 0.0 0.00 0.00 0.00 71 1018.6
20260902092732 15 162 0.0 0.0 0.00 0.00 0.00 70 1018.6
20260902092015 15 162 0.0 1.6 0.00 0.00 0.00 74 1018.7
20260902091514 15 162 0.0 1.6 0.00 0.00 0.00 74 1018.6
20260902091016 15 68 0.0 0.0 0.00 0.00 0.00 74 1018.8
20260902090513 16 68 0.0 3.2 0.00 0.00 0.00 73 1018.8
20260902090241 16 68 0.0 3.2 0.00 0.00 0.00 73 1018.9
20260902085514 16 93 0.0 0.0 0.00 0.00 0.00 71 1018.9
20260902085013 16 178 0.0 0.0 0.00 0.00 0.00 72 1018.8
20260902084513 16 300 0.0 3.2 0.00 0.00 0.00 72 1018.7
20260902084012 16 290 0.0 3.2 0.00 0.00 0.00 73 1018.8
20260902083514 16 302 0.0 1.6 0.00 0.00 0.00 74 1018.8
20260902083013 16 292 0.0 1.6 0.00 0.00 0.00 74 1018.8
20260902082741 15 23 0.0 0.0 0.00 0.00 0.00 75 1018.8
20260902082013 15 23 0.0 0.0 0.00 0.00 0.00 75 1018.7
20260902081512 16 316 0.0 0.0 0.00 0.00 0.00 75 1018.8
20260902081013 16 316 0.0 0.0 0.00 0.00 0.00 75 1018.7
20260902080737 16 316 0.0 0.0 0.00 0.00 0.00 75 1018.7
20260902080013 15 316 0.0 0.0 0.00 0.00 0.00 75 1018.9
20260902075512 16 316 0.0 0.0 0.00 0.00 0.00 75 1018.8
20260902075013 16 316 0.0 0.0 0.00 0.00 0.00 75 1018.8
20260902074735 16 316 0.0 0.0 0.00 0.00 0.00 74 1018.8
20260902074241 16 316 0.0 0.0 0.00 0.00 0.00 73 1018.8
20260902073734 16 316 0.0 0.0 0.00 0.00 0.00 72 1018.8
20260902073011 16 316 0.0 0.0 0.00 0.00 0.00 70 1018.7
20260902072512 17 316 0.0 4.8 0.00 0.00 0.00 68 1018.7
20260902072012 17 244 0.0 4.8 0.00 0.00 0.00 68 1018.6
20260902072000 17 266 0.0 4.8 0.00 0.00 0.00 68 1018.6
20260902071011 17 259 0.0 4.8 0.00 0.00 0.00 67 1018.5
20260902070512 17 313 1.6 4.8 0.00 0.00 0.00 68 1018.6
20260902070011 17 334 0.0 6.4 0.00 0.00 0.00 68 1018.6
20260902065512 17 295 0.0 6.4 0.00 0.00 0.00 67 1018.6
20260902065012 17 329 0.0 4.8 0.00 0.00 0.00 66 1018.5
20260902064511 17 248 0.0 11.3 0.00 0.00 0.00 66 1018.5
20260902064232 17 1 1.6 11.3 0.00 0.00 0.00 65 1018.4
20260902063732 17 285 3.2 14.5 0.00 0.00 0.00 65 1018.5
20260902063011 17 305 0.0 14.5 0.00 0.00 0.00 65 1018.4
20260902062510 17 296 1.6 6.4 0.00 0.00 0.00 65 1018.5
20260902062012 17 292 1.6 4.8 0.00 0.00 0.00 65 1018.5
20260902061510 17 333 0.0 4.8 0.00 0.00 0.00 64 1018.4
20260902061011 17 290 1.6 3.2 0.00 0.00 0.00 64 1018.5
20260902060509 17 298 0.0 3.2 0.00 0.00 0.00 63 1018.5
20260902060009 18 312 0.0 6.4 0.00 0.00 0.00 63 1018.5
20260902055510 18 293 0.0 6.4 0.00 0.00 0.00 63 1018.5
20260902055234 18 323 4.8 6.4 0.00 0.00 0.00 62 1018.5
20260902054510 18 321 3.2 4.8 0.00 0.00 0.00 59 1018.6
20260902054010 18 329 1.6 6.4 0.00 0.00 0.00 58 1018.6
20260902053513 18 341 0.0 6.4 0.00 0.00 0.00 56 1018.6
20260902053009 18 302 0.0 11.3 0.00 0.00 0.00 56 1018.7
20260902052508 18 282 1.6 11.3 0.00 0.00 0.00 55 1018.7
20260902052018 18 298 0.0 6.4 0.00 0.00 0.00 55 1018.8
20260902051509 19 278 0.0 1.6 0.00 0.00 0.00 54 1018.8
20260902051009 19 275 0.0 3.2 0.00 0.00 0.00 53 1018.7
20260902050734 20 293 0.0 3.2 0.00 0.00 0.00 51 1018.5
20260902050009 20 276 0.0 1.6 0.00 0.00 0.00 50 1018.6
20260902045730 20 255 0.0 1.6 0.00 0.00 0.00 46 1018.6
20260902045009 20 255 0.0 4.8 0.00 0.00 0.00 44 1018.6
20260902044735 21 255 0.0 6.4 0.00 0.00 0.00 42 1018.6
20260902044008 21 255 1.6 9.7 0.00 0.00 0.00 41 1018.5
20260902043508 21 251 3.2 9.7 0.00 0.00 0.00 42 1018.3
20260902043007 20 278 3.2 9.7 0.00 0.00 0.00 42 1018.3
20260902042508 20 282 0.0 3.2 0.00 0.00 0.00 44 1018.2
20260902042007 21 276 0.0 4.8 0.00 0.00 0.00 40 1018.3
20260902041509 21 197 1.6 6.4 0.00 0.00 0.00 39 1018.3
20260902041007 21 161 4.8 6.4 0.00 0.00 0.00 39 1018.3
20260902040508 21 162 3.2 4.8 0.00 0.00 0.00 39 1018.3
20260902040008 21 135 0.0 6.4 0.00 0.00 0.00 38 1018.2
20260902035506 21 168 3.2 6.4 0.00 0.00 0.00 38 1018.4
20260902035006 21 243 1.6 9.7 0.00 0.00 0.00 38 1018.3
20260902034507 22 169 0.0 9.7 0.00 0.00 0.00 38 1018.2
20260902034012 21 117 6.4 9.7 0.00 0.00 0.00 37 1018.0
20260902033736 21 200 0.0 3.2 0.00 0.00 0.00 38 1017.9
20260902033008 22 141 0.0 6.4 0.00 0.00 0.00 38 1017.8
20260902032506 22 164 3.2 17.7 0.00 0.00 0.00 37 1017.7
20260902032010 22 125 4.8 19.3 0.00 0.00 0.00 37 1017.6
20260902031505 22 210 6.4 19.3 0.00 0.00 0.00 36 1017.4
20260902031005 22 169 9.7 17.7 0.00 0.00 0.00 36 1017.4
20260902030511 22 171 9.7 27.4 0.00 0.00 0.00 36 1017.2
20260902030227 22 144 11.3 27.4 0.00 0.00 0.00 36 1017.1
20260902025509 22 130 9.7 19.3 0.00 0.00 0.00 35 1017.0
20260902025005 22 138 9.7 19.3 0.00 0.00 0.00 35 1017.0
20260902024506 22 214 4.8 19.3 0.00 0.00 0.00 35 1017.0
20260902024454 23 144 4.8 16.1 0.00 0.00 0.00 35 1017.0
20260902023504 23 131 6.4 16.1 0.00 0.00 0.00 34 1017.0
20260902023238 23 154 4.8 14.5 0.00 0.00 0.00 34 1017.0
20260902022505 23 124 3.2 16.1 0.00 0.00 0.00 33 1017.0
20260902022005 23 210 6.4 16.1 0.00 0.00 0.00 33 1016.9
20260902021506 24 155 8.0 16.1 0.00 0.00 0.00 32 1016.8
20260902021222 24 206 6.4 20.9 0.00 0.00 0.00 32 1016.7
20260902020504 24 133 9.7 20.9 0.00 0.00 0.00 32 1016.7
20260902020453 24 155 9.7 17.7 0.00 0.00 0.00 31 1016.4
20260902015505 25 127 8.0 17.7 0.00 0.00 0.00 31 1016.4
20260902015004 25 182 4.8 19.3 0.00 0.00 0.00 32 1016.4
20260902014508 25 131 11.3 19.3 0.00 0.00 0.00 32 1016.4
20260902014001 25 99 9.7 17.7 0.00 0.00 0.00 32 1016.5
20260902013505 25 142 6.4 16.1 0.00 0.00 0.00 31 1016.3
20260902013236 26 125 8.0 19.3 0.00 0.00 0.00 31 1016.3
20260902012504 26 110 3.2 19.3 0.00 0.00 0.00 31 1016.3
20260902012003 26 110 8.0 16.1 0.00 0.00 0.00 30 1016.2
20260902011505 26 124 3.2 17.7 0.00 0.00 0.00 30 1016.2
20260902011225 27 69 8.0 19.3 0.00 0.00 0.00 29 1016.1
20260902010727 27 100 9.7 19.3 0.00 0.00 0.00 29 1016.1
20260902010000 27 86 6.4 19.3 0.00 0.00 0.00 29 1016.2
20260902005501 27 102 9.7 24.1 0.00 0.00 0.00 29 1016.1
20260902005004 27 130 11.3 24.1 0.00 0.00 0.00 29 1016.1
20260902004503 27 128 4.8 16.1 0.00 0.00 0.00 29 1016.1
20260902004232 27 107 6.4 16.1 0.00 0.00 0.00 29 1016.1
20260902003722 27 106 4.8 17.7 0.00 0.00 0.00 28 1016.2
20260902003005 27 103 8.0 19.3 0.00 0.00 0.00 28 1016.2
20260902002502 27 127 6.4 19.3 0.00 0.00 0.00 28 1016.2
20260902002003 27 142 9.7 20.9 0.00 0.00 0.00 28 1016.2
20260902001502 27 104 9.7 22.5 0.00 0.00 0.00 28 1016.3
20260902001222 27 127 11.3 22.5 0.00 0.00 0.00 28 1016.4
20260902000502 27 106 4.8 20.9 0.00 0.00 0.00 29 1016.3
20260902000001 27 145 6.4 19.3 0.00 0.00 0.00 28 1016.4
20260901235503 27 118 8.0 24.1 0.00 0.00 0.00 29 1016.4
20260901235001 27 138 11.3 24.1 0.00 0.00 0.00 28 1016.5
20260901234501 27 134 9.7 19.3 0.00 0.00 0.00 28 1016.4
20260901234447 27 121 9.7 19.3 0.00 0.00 0.00 28 1016.5
20260901233725 27 127 9.7 20.9 0.00 0.00 0.00 28 1016.7
20260901232958 27 134 9.7 22.5 0.00 0.00 0.00 28 1016.7
20260901232458 27 125 11.3 22.5 0.00 0.00 0.00 28 1016.7
20260901232001 27 131 9.7 19.3 0.00 0.00 0.00 28 1016.7
20260901231501 27 118 8.0 22.5 0.00 0.00 0.00 28 1016.8
20260901231224 27 104 9.7 22.5 0.00 0.00 0.00 28 1016.8
20260901230500 27 102 8.0 19.3 0.00 0.00 0.00 28 1017.0
20260901225959 27 78 9.7 20.9 0.00 0.00 0.00 28 1017.0
20260901225502 27 82 9.7 20.9 0.00 0.00 0.00 27 1017.0
20260901224959 27 102 9.7 20.9 0.00 0.00 0.00 27 1017.0
20260901224500 27 137 11.3 20.9 0.00 0.00 0.00 27 1016.9
20260901224002 27 152 14.5 20.9 0.00 0.00 0.00 26 1016.9
20260901223500 27 94 6.4 24.1 0.00 0.00 0.00 26 1016.8
20260901223000 27 99 8.0 24.1 0.00 0.00 0.00 26 1016.9
20260901222500 27 100 9.7 17.7 0.00 0.00 0.00 26 1016.9
20260901222224 28 140 9.7 16.1 0.00 0.00 0.00 25 1016.8
20260901221947 28 116 8.0 14.5 0.00 0.00 0.00 25 1016.8
20260901220959 28 107 4.8 16.1 0.00 0.00 0.00 25 1016.8
20260901220458 28 90 4.8 19.3 0.00 0.00 0.00 25 1016.8
20260901215956 28 121 11.3 19.3 0.00 0.00 0.00 24 1016.8
20260901215455 29 113 6.4 20.9 0.00 0.00 0.00 24 1016.8
20260901215000 28 63 8.0 20.9 0.00 0.00 0.00 24 1016.8
20260901214458 29 117 6.4 17.7 0.00 0.00 0.00 24 1016.8
20260901213957 28 73 6.4 14.5 0.00 0.00 0.00 24 1017.0
20260901213458 28 83 6.4 17.7 0.00 0.00 0.00 25 1017.1
20260901212958 28 114 8.0 17.7 0.00 0.00 0.00 24 1017.1
20260901212458 28 83 6.4 14.5 0.00 0.00 0.00 25 1017.2
20260901211958 28 75 6.4 14.5 0.00 0.00 0.00 25 1017.2
20260901211736 28 65 4.8 9.7 0.00 0.00 0.00 25 1017.2
20260901210957 28 113 4.8 11.3 0.00 0.00 0.00 25 1017.2
20260901210458 28 37 6.4 11.3 0.00 0.00 0.00 25 1017.2
20260901205957 28 130 4.8 11.3 0.00 0.00 0.00 26 1017.4
20260901205457 28 135 4.8 17.7 0.00 0.00 0.00 26 1017.4
20260901204957 27 73 3.2 17.7 0.00 0.00 0.00 27 1017.4
20260901204723 27 71 4.8 14.5 0.00 0.00 0.00 27 1017.5
20260901204219 28 65 4.8 14.5 0.00 0.00 0.00 26 1017.6
20260901203456 28 131 4.8 14.5 0.00 0.00 0.00 26 1017.6
20260901202954 27 79 6.4 14.5 0.00 0.00 0.00 27 1017.6
20260901202455 27 82 4.8 17.7 0.00 0.00 0.00 27 1017.7
20260901201957 27 135 6.4 17.7 0.00 0.00 0.00 28 1017.8
20260901201457 27 89 3.2 11.3 0.00 0.00 0.00 29 1017.8
20260901200956 27 104 3.2 9.7 0.00 0.00 0.00 29 1017.9
20260901200727 26 59 3.2 6.4 0.00 0.00 0.00 30 1018.0
20260901195956 26 83 3.2 6.4 0.00 0.00 0.00 31 1018.0
20260901195456 26 55 1.6 8.0 0.00 0.00 0.00 32 1018.2
20260901194956 25 107 0.0 8.0 0.00 0.00 0.00 33 1018.3
20260901194457 25 90 1.6 4.8 0.00 0.00 0.00 34 1018.3
20260901194220 25 251 0.0 6.4 0.00 0.00 0.00 33 1018.3
20260901193457 25 110 3.2 6.4 0.00 0.00 0.00 33 1018.5
20260901192956 25 133 4.8 6.4 0.00 0.00 0.00 33 1018.5
20260901192455 25 10 4.8 8.0 0.00 0.00 0.00 32 1018.6
20260901191955 26 66 1.6 9.7 0.00 0.00 0.00 33 1018.8
20260901191455 25 100 3.2 9.7 0.00 0.00 0.00 34 1018.9
20260901190957 25 47 1.6 8.0 0.00 0.00 0.00 32 1019.0
20260901190711 25 94 1.6 6.4 0.00 0.00 0.00 31 1019.1
20260901190213 25 117 3.2 6.4 0.00 0.00 0.00 32 1019.3
20260901185454 24 83 1.6 6.4 0.00 0.00 0.00 32 1019.4
20260901184954 24 62 3.2 6.4 0.00 0.00 0.00 33 1019.4
20260901184454 23 109 3.2 6.4 0.00 0.00 0.00 33 1019.4
20260901183954 23 144 1.6 6.4 0.00 0.00 0.00 35 1019.5
20260901183454 23 96 1.6 6.4 0.00 0.00 0.00 36 1019.5
20260901182956 23 51 3.2 6.4 0.00 0.00 0.00 35 1019.6
20260901182450 22 51 0.0 4.8 0.00 0.00 0.00 36 1019.8
20260901181951 22 48 1.6 6.4 0.00 0.00 0.00 37 1019.9
20260901181452 22 83 3.2 6.4 0.00 0.00 0.00 39 1019.9
20260901181219 22 68 1.6 4.8 0.00 0.00 0.00 40 1020.0
20260901180454 22 78 1.6 4.8 0.00 0.00 0.00 40 1020.1
20260901175959 22 71 0.0 4.8 0.00 0.00 0.00 40 1020.2
20260901175453 22 114 1.6 4.8 0.00 0.00 0.00 40 1020.3
20260901175220 21 65 1.6 3.2 0.00 0.00 0.00 40 1020.2
20260901174453 21 154 0.0 4.8 0.00 0.00 0.00 44 1020.3
20260901173953 20 245 3.2 4.8 0.00 0.00 0.00 44 1020.3
20260901173453 20 329 1.6 4.8 0.00 0.00 0.00 44 1020.3
20260901172954 20 121 0.0 1.6 0.00 0.00 0.00 46 1020.4
20260901172453 19 113 0.0 1.6 0.00 0.00 0.00 47 1020.6
20260901172213 19 321 0.0 4.8 0.00 0.00 0.00 48 1020.7
20260901171452 18 344 0.0 4.8 0.00 0.00 0.00 50 1020.6
20260901170952 18 66 0.0 3.2 0.00 0.00 0.00 51 1020.8
20260901170452 18 124 1.6 3.2 0.00 0.00 0.00 52 1020.9
20260901165952 18 45 0.0 3.2 0.00 0.00 0.00 53 1021.0
20260901165715 17 49 1.6 3.2 0.00 0.00 0.00 54 1021.1
20260901164954 17 78 1.6 3.2 0.00 0.00 0.00 55 1021.4
20260901164453 17 90 0.0 3.2 0.00 0.00 0.00 56 1021.5
20260901163952 16 113 0.0 0.0 0.00 0.00 0.00 58 1021.5
20260901163451 16 217 0.0 0.0 0.00 0.00 0.00 59 1021.6
20260901162951 16 217 0.0 0.0 0.00 0.00 0.00 60 1021.5
20260901162456 16 217 0.0 0.0 0.00 0.00 0.00 60 1021.5
20260901161951 15 217 0.0 0.0 0.00 0.00 0.00 60 1021.5
20260901161450 15 188 0.0 0.0 0.00 0.00 0.00 64 1021.6
20260901160952 15 188 0.0 0.0 0.00 0.00 0.00 64 1021.5
20260901160450 15 188 0.0 0.0 0.00 0.00 0.00 66 1021.5
20260901155951 14 188 0.0 0.0 0.00 0.00 0.00 67 1021.6
20260901155455 13 172 0.0 0.0 0.00 0.00 0.00 70 1021.7
20260901154950 13 157 0.0 0.0 0.00 0.00 0.00 72 1021.8
20260901154450 12 157 0.0 0.0 0.00 0.00 0.00 75 1021.8
20260901153950 12 157 0.0 0.0 0.00 0.00 0.00 75 1021.9
20260901153450 12 157 0.0 0.0 0.00 0.00 0.00 77 1021.9
20260901152950 12 157 0.0 0.0 0.00 0.00 0.00 78 1022.0
20260901152451 12 157 0.0 0.0 0.00 0.00 0.00 77 1022.0
20260901151950 11 157 0.0 0.0 0.00 0.00 0.00 79 1022.1
20260901151719 11 154 0.0 0.0 0.00 0.00 0.00 81 1022.0
20260901150950 11 154 0.0 0.0 0.00 0.00 0.00 82 1022.1
20260901150709 10 152 0.0 0.0 0.00 0.00 0.00 82 1022.2
20260901145950 10 154 0.0 0.0 0.00 0.00 0.00 82 1022.2
20260901145450 10 154 0.0 0.0 0.00 0.00 0.00 81 1022.2
20260901144950 10 154 0.0 0.0 0.00 0.00 0.00 82 1022.2
20260901144450 9 152 0.0 0.0 0.00 0.00 0.00 85 1022.2
20260901143952 8 161 0.0 0.0 0.00 0.00 0.00 87 1022.4
20260901143449 8 161 0.0 0.0 0.00 0.00 0.00 87 1022.3
20260901142950 8 161 0.0 0.0 0.00 0.00 0.00 86 1022.3
20260901142448 8 161 0.0 0.0 0.00 0.00 0.00 87 1022.3
20260901141948 8 161 0.0 0.0 0.00 0.00 0.00 87 1022.2
20260901141448 8 161 0.0 0.0 0.00 0.00 0.00 86 1022.2
20260901140948 8 161 0.0 0.0 0.00 0.00 0.00 85 1022.2
20260901140449 8 161 0.0 0.0 0.00 0.00 0.00 85 1022.1
20260901135947 8 161 0.0 0.0 0.00 0.00 0.00 85 1022.2
20260901135449 8 161 0.0 0.0 0.00 0.00 0.00 84 1022.2
20260901134948 8 161 0.0 0.0 0.00 0.00 0.00 84 1022.1
20260901134449 8 161 0.0 0.0 0.00 0.00 0.00 85 1022.1
20260901133948 8 149 0.0 0.0 0.00 0.00 0.00 85 1022.1
20260901133447 7 151 0.0 0.0 0.00 0.00 0.00 85 1022.0
20260901132950 8 149 0.0 0.0 0.00 0.00 0.00 84 1022.0
20260901132447 8 149 0.0 0.0 0.00 0.00 0.00 83 1022.0
20260901131947 8 151 0.0 0.0 0.00 0.00 0.00 83 1022.0
20260901131447 8 149 0.0 0.0 0.00 0.00 0.00 83 1022.0
20260901130949 8 148 0.0 0.0 0.00 0.00 0.00 83 1022.0
20260901130447 8 145 0.0 0.0 0.00 0.00 0.00 83 1021.9
20260901130211 8 159 0.0 0.0 0.00 0.00 0.00 82 1021.9
20260901125446 9 213 0.0 3.2 0.00 0.00 0.00 80 1022.0
20260901124946 8 212 0.0 3.2 0.00 0.00 0.00 81 1022.0
20260901124458 8 157 0.0 0.0 0.00 0.00 0.00 82 1022.1
20260901123946 8 8 0.0 0.0 0.00 0.00 0.00 82 1022.0
20260901123447 9 234 0.0 0.0 0.00 0.00 0.00 81 1022.1
20260901122947 9 234 0.0 0.0 0.00 0.00 0.00 80 1022.1
20260901122447 9 219 0.0 0.0 0.00 0.00 0.00 82 1022.2
20260901121946 8 255 0.0 0.0 0.00 0.00 0.00 83 1022.2
20260901121446 8 255 0.0 0.0 0.00 0.00 0.00 84 1022.2
20260901120945 8 255 0.0 0.0 0.00 0.00 0.00 84 1022.2
20260901120445 8 255 0.0 0.0 0.00 0.00 0.00 83 1022.3
20260901115946 8 255 0.0 0.0 0.00 0.00 0.00 84 1022.3
20260901115445 8 255 0.0 0.0 0.00 0.00 0.00 85 1022.3
20260901114946 8 271 0.0 0.0 0.00 0.00 0.00 85 1022.5
20260901114445 8 271 0.0 0.0 0.00 0.00 0.00 86 1022.5
20260901113947 8 271 0.0 0.0 0.00 0.00 0.00 86 1022.5
20260901113444 8 271 0.0 0.0 0.00 0.00 0.00 86 1022.6
20260901112944 8 271 0.0 0.0 0.00 0.00 0.00 85 1022.6
20260901112444 8 235 0.0 0.0 0.00 0.00 0.00 84 1022.5
20260901111947 8 235 0.0 0.0 0.00 0.00 0.00 83 1022.6
20260901111444 8 235 0.0 0.0 0.00 0.00 0.00 83 1022.6
20260901110944 8 190 0.0 0.0 0.00 0.00 0.00 84 1022.6
20260901110711 8 190 0.0 0.0 0.00 0.00 0.00 83 1022.7
20260901105944 8 190 0.0 0.0 0.00 0.00 0.00 81 1022.9
20260901105712 9 190 0.0 0.0 0.00 0.00 0.00 81 1022.7
20260901104944 9 190 0.0 0.0 0.00 0.00 0.00 81 1022.7
20260901104711 9 190 0.0 0.0 0.00 0.00 0.00 80 1022.7
20260901104201 9 190 0.0 0.0 0.00 0.00 0.00 80 1022.9
20260901103443 9 190 0.0 0.0 0.00 0.00 0.00 80 1022.9
20260901102943 10 190 0.0 0.0 0.00 0.00 0.00 79 1022.7
20260901102712 10 190 0.0 0.0 0.00 0.00 0.00 78 1022.7
20260901101944 10 190 0.0 0.0 0.00 0.00 0.00 77 1022.7
20260901101443 10 190 0.0 0.0 0.00 0.00 0.00 75 1022.7
20260901100944 10 190 0.0 0.0 0.00 0.00 0.00 76 1022.7
20260901100442 10 231 0.0 0.0 0.00 0.00 0.00 77 1022.6
20260901095945 10 231 0.0 0.0 0.00 0.00 0.00 75 1022.7
20260901095709 10 231 0.0 0.0 0.00 0.00 0.00 76 1022.7
20260901094942 10 231 0.0 0.0 0.00 0.00 0.00 78 1022.7
20260901094443 10 231 0.0 0.0 0.00 0.00 0.00 76 1022.5
20260901093942 10 231 0.0 0.0 0.00 0.00 0.00 74 1022.6
20260901093443 10 230 0.0 0.0 0.00 0.00 0.00 77 1022.6